Total_Precipitation_Accumulation
1.28 1.23 1.10 0.91 0.80 0.81 0.83 0.81 0.76 0.78 0.74 0.75 0.71 0.75 0.88 0.89 0.89 1.04 1.13 1.15 1.28 1.37 1.37 1.42 1.58 1.71 1.82 1.85 1.84 1.83 1.88 1.83 1.71 1.48 1.16 0.98 1.06 1.07 1.14 1.00 0.99 1.03 0.95
1.00 0.90 0.77 0.63 0.58 0.62 0.64 0.60 0.52 0.54 0.50 0.55 0.59 0.59 0.77 0.94 0.97 1.00 1.01 1.00 1.10 1.20 1.24 1.31 1.36 1.38 1.48 1.62 1.72 1.71 1.79 1.83 1.80 1.69 1.39 1.15 1.12 1.19 1.34 1.34 1.23 1.15 1.12
0.92 0.77 0.70 0.63 0.60 0.59 0.53 0.48 0.40 0.38 0.41 0.44 0.55 0.55 0.61 0.77 0.88 0.89 0.88 0.91 0.97 1.04 1.07 1.13 1.17 1.24 1.35 1.37 1.44 1.53 1.62 1.68 1.77 1.71 1.60 1.47 1.30 1.24 1.31 1.30 1.36 1.50 1.45
1.10 0.89 0.77 0.72 0.62 0.52 0.43 0.40 0.36 0.41 0.45 0.41 0.40 0.43 0.51 0.61 0.72 0.75 0.76 0.79 0.82 0.83 0.95 1.03 1.08 1.11 1.21 1.28 1.29 1.41 1.53 1.62 1.64 1.61 1.55 1.48 1.42 1.39 1.40 1.37 1.43 1.57 1.64
0.80 0.60 0.52 0.50 0.46 0.37 0.32 0.31 0.30 0.30 0.29 0.29 0.27 0.28 0.33 0.42 0.48 0.51 0.59 0.67 0.73 0.77 0.87 0.90 0.92 0.88 0.92 0.99 0.99 1.16 1.33 1.52 1.58 1.61 1.51 1.40 1.35 1.36 1.35 1.37 1.43 1.60 1.63
0.46 0.38 0.35 0.31 0.27 0.25 0.25 0.23 0.19 0.18 0.15 0.19 0.20 0.24 0.27 0.29 0.36 0.36 0.40 0.53 0.63 0.69 0.76 0.78 0.84 0.86 0.82 0.77 0.77 0.84 0.98 1.11 1.30 1.42 1.46 1.38 1.30 1.28 1.36 1.47 1.49 1.57 1.66
0.21 0.18 0.19 0.20 0.18 0.15 0.16 0.16 0.17 0.16 0.14 0.15 0.17 0.22 0.24 0.21 0.23 0.22 0.34 0.55 0.59 0.59 0.58 0.71 0.82 0.87 0.90 0.92 0.81 0.79 0.81 0.84 0.94 1.12 1.26 1.26 1.24 1.26 1.32 1.42 1.49 1.53 1.45
0.16 0.14 0.13 0.16 0.16 0.17 0.18 0.19 0.16 0.13 0.13 0.17 0.18 0.24 0.22 0.15 0.17 0.20 0.28 0.44 0.52 0.49 0.51 0.62 0.77 0.87 0.90 0.93 0.89 0.96 0.93 0.82 0.79 0.86 1.05 1.13 1.13 1.26 1.39 1.50 1.61 1.60 1.54
0.14 0.15 0.14 0.15 0.16 0.15 0.15 0.15 0.14 0.12 0.12 0.16 0.20 0.21 0.17 0.13 0.14 0.19 0.28 0.43 0.50 0.50 0.47 0.55 0.71 0.80 0.90 0.92 0.90 1.00 1.00 0.82 0.74 0.84 0.89 0.95 1.04 1.17 1.36 1.50 1.59 1.60 1.58
0.13 0.15 0.17 0.17 0.15 0.15 0.17 0.18 0.16 0.14 0.14 0.14 0.18 0.18 0.16 0.18 0.17 0.16 0.23 0.33 0.41 0.49 0.49 0.54 0.73 0.79 0.83 0.80 0.83 1.03 1.12 0.97 0.73 0.72 0.79 0.92 1.00 1.13 1.36 1.50 1.73 1.74 1.54
0.13 0.15 0.15 0.14 0.14 0.16 0.18 0.22 0.20 0.17 0.16 0.15 0.16 0.16 0.14 0.14 0.17 0.17 0.23 0.23 0.28 0.33 0.39 0.45 0.47 0.59 0.62 0.67 0.78 0.89 0.99 0.89 0.80 0.88 0.96 1.00 1.06 1.12 1.21 1.33 1.55 1.74 1.69
0.14 0.15 0.14 0.14 0.16 0.18 0.19 0.18 0.16 0.15 0.15 0.14 0.13 0.13 0.14 0.13 0.14 0.16 0.21 0.21 0.24 0.28 0.31 0.35 0.40 0.50 0.54 0.59 0.65 0.71 0.75 0.80 0.85 0.98 1.00 0.91 0.96 1.02 1.03 1.12 1.29 1.43 1.34
0.12 0.14 0.16 0.18 0.21 0.21 0.21 0.18 0.17 0.16 0.16 0.16 0.15 0.15 0.16 0.16 0.15 0.17 0.20 0.21 0.24 0.26 0.27 0.33 0.36 0.43 0.43 0.48 0.55 0.57 0.65 0.86 0.99 0.94 0.91 0.87 0.86 0.89 0.89 1.00 1.19 1.34 1.29
0.13 0.15 0.18 0.20 0.23 0.24 0.22 0.20 0.18 0.17 0.19 0.21 0.20 0.19 0.20 0.22 0.19 0.18 0.19 0.23 0.28 0.29 0.30 0.34 0.36 0.41 0.43 0.45 0.52 0.60 0.71 0.88 1.03 0.89 0.77 0.77 0.77 0.86 0.92 0.91 1.00 1.09 1.24
0.14 0.16 0.20 0.21 0.23 0.24 0.24 0.23 0.22 0.22 0.24 0.26 0.25 0.26 0.25 0.24 0.24 0.26 0.24 0.25 0.30 0.30 0.34 0.41 0.52 0.60 0.60 0.61 0.67 0.71 0.74 0.75 0.80 0.74 0.73 0.79 0.82 0.83 0.88 0.89 0.90 0.92 0.95
0.14 0.16 0.19 0.21 0.22 0.24 0.26 0.27 0.28 0.27 0.28 0.27 0.27 0.26 0.24 0.25 0.28 0.31 0.33 0.32 0.35 0.37 0.45 0.48 0.60 0.74 0.79 0.81 0.82 0.82 0.83 0.79 0.79 0.75 0.78 0.79 0.77 0.76 0.77 0.83 0.91 0.97 0.92
0.15 0.17 0.19 0.18 0.18 0.21 0.25 0.29 0.33 0.32 0.29 0.26 0.27 0.27 0.26 0.27 0.28 0.29 0.31 0.34 0.39 0.47 0.47 0.52 0.69 0.76 0.75 0.78 0.84 0.87 0.81 0.72 0.72 0.72 0.67 0.66 0.64 0.62 0.64 0.68 0.76 0.83 0.84
0.19 0.20 0.22 0.21 0.21 0.24 0.25 0.26 0.29 0.33 0.33 0.28 0.25 0.25 0.25 0.26 0.27 0.28 0.31 0.36 0.42 0.48 0.53 0.70 0.87 0.92 0.86 0.79 0.76 0.73 0.66 0.60 0.59 0.57 0.57 0.57 0.59 0.60 0.61 0.61 0.62 0.65 0.70
0.22 0.22 0.23 0.24 0.23 0.24 0.24 0.24 0.25 0.25 0.27 0.27 0.27 0.26 0.27 0.28 0.29 0.30 0.32 0.35 0.41 0.47 0.56 0.70 0.82 0.91 0.86 0.72 0.63 0.60 0.56 0.54 0.51 0.52 0.54 0.57 0.58 0.60 0.60 0.62 0.62 0.64 0.66
0.19 0.25 0.26 0.25 0.24 0.24 0.26 0.27 0.26 0.27 0.29 0.29 0.29 0.32 0.35 0.32 0.32 0.37 0.40 0.40 0.43 0.47 0.50 0.53 0.56 0.57 0.54 0.52 0.54 0.53 0.51 0.52 0.52 0.53 0.55 0.56 0.61 0.66 0.65 0.63 0.64 0.64 0.65
0.19 0.25 0.27 0.25 0.23 0.24 0.29 0.32 0.31 0.30 0.30 0.29 0.29 0.31 0.35 0.33 0.35 0.39 0.40 0.40 0.45 0.48 0.48 0.47 0.48 0.49 0.49 0.47 0.48 0.48 0.48 0.50 0.53 0.55 0.57 0.60 0.61 0.62 0.65 0.65 0.65 0.66 0.66
0.18 0.22 0.24 0.26 0.28 0.30 0.32 0.33 0.33 0.31 0.30 0.29 0.29 0.31 0.34 0.34 0.37 0.37 0.37 0.38 0.41 0.44 0.45 0.44 0.43 0.46 0.49 0.48 0.49 0.50 0.48 0.48 0.50 0.56 0.60 0.64 0.65 0.63 0.63 0.64 0.65 0.64 0.64
0.18 0.19 0.20 0.26 0.30 0.35 0.36 0.35 0.32 0.30 0.30 0.30 0.32 0.33 0.34 0.35 0.35 0.35 0.36 0.39 0.40 0.42 0.43 0.44 0.41 0.42 0.44 0.43 0.44 0.47 0.49 0.48 0.50 0.56 0.64 0.68 0.71 0.71 0.70 0.66 0.65 0.67 0.66
0.21 0.23 0.23 0.25 0.28 0.31 0.33 0.37 0.38 0.35 0.34 0.33 0.31 0.33 0.36 0.36 0.37 0.39 0.37 0.36 0.37 0.39 0.39 0.40 0.40 0.40 0.43 0.45 0.45 0.46 0.46 0.47 0.51 0.55 0.62 0.68 0.71 0.72 0.77 0.80 0.77 0.74 0.73
0.28 0.29 0.28 0.28 0.28 0.29 0.33 0.36 0.40 0.40 0.38 0.37 0.36 0.36 0.38 0.38 0.39 0.41 0.39 0.37 0.37 0.38 0.41 0.41 0.39 0.38 0.40 0.42 0.44 0.46 0.54 0.54 0.51 0.52 0.56 0.64 0.70 0.71 0.73 0.77 0.82 0.84 0.81
0.32 0.33 0.32 0.31 0.32 0.33 0.34 0.36 0.37 0.38 0.38 0.38 0.38 0.38 0.40 0.44 0.46 0.49 0.48 0.49 0.49 0.47 0.46 0.45 0.43 0.43 0.43 0.43 0.43 0.48 0.52 0.49 0.47 0.49 0.51 0.56 0.63 0.68 0.72 0.75 0.78 0.84 0.89